{"data":{"norad_id":68249,"epoch":"2026-09-19T23:10:47.597088Z","epoch_age_seconds":97959,"freshness":"FRESH","line1":"1 68249U 26054T   26262.96582867  .00010206  00000+0  31270-3 0  9999","line2":"2 68249  53.1590 104.0186 0001455 115.3057 244.8096 15.34409927 28884","mean_motion":15.34409927,"eccentricity":0.0001455,"inclination_deg":53.159,"raan_deg":104.0186,"arg_perigee_deg":115.3057,"mean_anomaly_deg":244.8096,"bstar":0.0003127,"rev_number":2888,"period_min":93.847150925008,"perigee_km":461.67839726818,"apogee_km":463.66907319213,"semimajor_km":6840.8107352302,"source":"CELESTRAK","updated_at":"2026-09-20T09:00:43.842939Z"}}